Regional Weather Roundup
Issued by NWS Northern Indiana

Home | Current Version | Previous Version | Graphics & Text | Print | Product List | Glossary On
Versions: 1 2 3 4 5 6 7 8 9 10 11 12 13 14 15 16 17 18 19 20 21 22 23 24 25 26 27 28 29 30 31 32 33 34 35 36 37 38 39 40 41 42 43 44 45 46 47 48 49 50
000
ASUS43 KIWX 162100
RWRIWX

KIWX WEATHER ROUNDUP
NATIONAL WEATHER SERVICE NORTHERN INDIANA
400 PM EST MON JAN 16 2017

NOTE: "FAIR" INDICATES FEW OR NO CLOUDS BELOW 12,000 FEET WITH NO
SIGNIFICANT WEATHER AND/OR OBSTRUCTIONS TO VISIBILITY.

* THESE STATIONS ARE NOT UNDER NWS QUALITY CONTROL. THEY ALSO MAY NOT
  REPORT WEATHER SUCH AS PRECIPITATION OR FOG.

INZ001>027-162200-
NORTHERN INDIANA

CITY           SKY/WX    TMP DP  RH WIND       PRES   REMARKS
GARY*          LGT RAIN  37  37 100 E7        30.09F
VALPARAISO     FOG       37  37 100 E8        30.09F VSB 1/4
SOUTH BEND     LGT RAIN  35  35 100 E10       30.11F VSB 3/4 WCI  27
ELKHART*       LGT RAIN  36  36 100 E8        30.13F VSB 3/4
GOSHEN         LGT RAIN  36  33  89 SE7       30.14S VSB 1/2
FORT WAYNE     DRZL/FOG  36  34  92 E7        30.15F VSB 1/4

$$
INZ028>050-162200-
CENTRAL INDIANA

CITY           SKY/WX    TMP DP  RH WIND       PRES   REMARKS
LAFAYETTE      FOG       42  42 100 E7        30.08S VSB 1
KOKOMO*        CLOUDY    39  39 100 E9        30.11F FOG
MUNCIE*        CLOUDY    49  45  86 SE8       30.11F
INDIANAPOLIS   FOG       47  45  93 SE8       30.11S VSB 1

$$
MIZ043>046-050>051-056>058-064>065-071>073-077>080-162200-
SOUTHWEST LOWER MICHIGAN

CITY           SKY/WX    TMP DP  RH WIND       PRES   REMARKS
BATTLE CREEK   LGT RAIN  35  34  96 E7        30.16S FOG     WCI  29
BENTON HARBOR  LGT RAIN  36  34  92 E9        30.12F FOG
COLDWATER*     CLOUDY    36  36 100 SE6       30.16S FOG
HILLSDALE*     FOG       32  32 100 E7        30.16S VSB 3/4 WCI  26
HOLLAND        LGT RAIN  34  31  88 E8        30.16F WCI  27
GRAND RAPIDS   LGT RAIN  32  29  88 E10       30.17F FOG     WCI  24
KALAMAZOO      LGT RAIN  36  32  85 E6        30.15F FOG
STURGIS*       FOG       35  34  98 SE6       30.14S VSB 1   WCI  30
THREE RIVERS*  LGT RAIN  35  34  96 SE5       30.15S VSB 3/4 WCI  31

$$
OHZ001>008-015>018-024>025-162200-
NORTHWEST OHIO

CITY           SKY/WX    TMP DP  RH WIND       PRES   REMARKS
DEFIANCE       FOG       35  32  88 E6        30.19S VSB 3/4 WCI  30
FINDLAY        CLOUDY    39  35  86 E5        30.18F FOG
TOLEDO EXPRESS CLOUDY    36  28  73 E6        30.20S
TOLEDO METCALF CLOUDY    35  31  85 E6        30.22F FOG     WCI  30
LIMA           CLOUDY    38  37  97 E7        30.17S FOG

$$
AND FOR LAKE MICHIGAN COASTAL AND OPEN LAKE BUOY OBSERVATIONS

STATION/POSITION TEMP    WIND        PRES    VSBY  WAVE
                 AIR SEA DIR/SP/G                  HT/PER
                 (F)     (DEG/KT/KT) (MB)    (MI)  (FT/S)
CALUMET HARBOR    33      80/  5/  8 1018.3F
MICHIGAN CITY     36      80/  7/  9   N/A
BURNS HARBOR      36      90/  8/ 10 1019.3F

$$
&&




USA.gov is the U.S. government's official web portal to all federal, state and local government web resources and services.